User: anonymous   Login
Location: Boca do Mato
(22.9085°S, 43.2930°W)
Time: 08:41:34
(UTC+00:00)
Language:

Delta 7925 Rocket - Orbit

View from above orbital plane
View from above orbital plane
View from above satellite
View from above satellite

Ground track
Ground track

The orbit data is extracted from the following two-line orbital elements,

1 24809U 97025B   20272.77194119 +.00000230 +00000-0 +57451-4 0  9999
2 24809 026.2970 071.3724 0666129 202.3647 154.6473 13.30061841135791
Epoch (UTC): 28 September 2020 18:31:35
Eccentricity: 0.0666129
inclination: 26.2970°
perigee height: 645 km
apogee height: 1648 km
right ascension of ascending node: 71.3724°
argument of perigee: 202.3647°
revolutions per day: 13.30061841
mean anomaly at epoch: 154.6473°
orbit number at epoch: 13579

The dashed part of the orbit path shows where the satellite is in the earth's shadow,  

DLR